Regional Weather Roundup
Issued by NWS Memphis, TN

Home | Current Version | Previous Version | Text Only | Print | Product List | Glossary On
Versions: 1 2 3 4 5 6 7 8 9 10 11 12 13 14 15 16 17 18 19 20 21 22 23 24 25 26 27 28 29 30 31 32 33 34 35 36 37 38 39 40 41 42 43 44 45 46 47 48 49 50
000
ASUS44 KMEG 251010
RWRMEG
MEMPHIS CWA HOURLY WEATHER ROUNDUP
NATIONAL WEATHER SERVICE MEMPHIS TN
500 AM CDT WED MAY 25 2016

...WEST TENNESSEE...

CITY           SKY/WX    TMP DP  RH WIND       PRES   REMARKS
MEMPHIS INTL   PTCLDY    67  62  84 SE6       30.05R
NWS MEMPHIS      N/A     64 N/A N/A MISG        N/A
JACKSON        CLOUDY    66  64  93 CALM      30.07R
LEXINGTON      MOCLDY    66  63  88 CALM      30.07R
DYERSBURG      CLOUDY    64  63  94 SE5       30.05R
UNION CITY     PTCLDY    66  66 100 SE3       30.05R
PARIS          MOCLDY    64  63  94 W3        30.07R


...EASTERN ARKANSAS...

CITY           SKY/WX    TMP DP  RH WIND       PRES   REMARKS
JONESBORO      CLEAR     64  63  96 CALM      30.03R
WEST MEMPHIS   CLOUDY    64  63  96 S5        30.04R
BATESVILLE     CLOUDY    66  61  82 S7        30.03R
NEWPORT        CLOUDY    64  64 100 SE5       30.04R
WALNUT RIDGE   PTCLDY    63  59  88 S5        30.04R
BLYTHEVILLE    CLOUDY    65  64  97 SE5       30.04R
SEARCY         CLOUDY    64  64 100 N3        30.04R
STUTTGART      CLOUDY    70  61  73 S9        30.03R
PINE BLUFF     MOCLDY    68  62  81 SE5       30.02S
MONTICELLO     CLOUDY    69  64  84 S3        30.04R


...NORTH MISSISSIPPI...

CITY           SKY/WX    TMP DP  RH WIND       PRES   REMARKS
TUPELO         CLOUDY    68  62  81 S3        30.08R
OXFORD         CLEAR     64  59  82 SE7       30.08R
BATESVILLE     CLEAR     64  61  91 CALM      30.06R
OLIVE BRANCH   CLEAR     63 N/A N/A CALM      30.06R
TUNICA         CLEAR     63  61  94 CALM      30.06R
CLARKSDALE     CLEAR     70  64  83 S6        30.05R
CORINTH          N/A    N/A N/A N/A MISG        N/A
GREENWOOD      CLOUDY    68  61  78 S7        30.07R
COLUMBUS       CLEAR     63  60  90 SE5       30.08R
STARKVILLE     CLEAR     61  61 100 CALM      30.08S
GOLDEN TRIANGL CLEAR     64  57  77 S5        30.08S


...SOUTHEAST MISSOURI...

CITY           SKY/WX    TMP DP  RH WIND       PRES   REMARKS
KENNETT        CLOUDY    64  64 100 SE6       30.02R FOG
WEST PLAINS    CLOUDY    60  57  89 CALM      30.06R FOG
POPLAR BLUFF   PTCLDY    62  61  96 CALM      30.03R
CAPE GIRARDEAU CLOUDY    63  61  93 CALM      30.02R


...NORTHWEST ALABAMA...

CITY           SKY/WX    TMP DP  RH WIND       PRES   REMARKS
MUSCLE SHOALS  CLOUDY    70  59  68 CALM      30.11R


...MIDDLE TENNESSEE...

CITY           SKY/WX    TMP DP  RH WIND       PRES   REMARKS
NASHVILLE      CLOUDY    69  56  62 S3        30.10R
CLARKSVILLE    CLOUDY    68  60  75 CALM      30.06R
COLUMBIA       CLOUDY    72  72 100 SW6       30.09R


...WESTERN KENTUCKY...

CITY           SKY/WX    TMP DP  RH WIND       PRES   REMARKS
PADUCAH        CLOUDY    65  62  90 SW5       30.03R
FORT CAMPBELL  CLOUDY    69  62  77 S6        30.06R


...CENTRAL ARKANSAS...

CITY           SKY/WX    TMP DP  RH WIND       PRES   REMARKS
LITTLE ROCK    CLOUDY    68  62  81 S12       29.99S


SKY/WX REPORTED AS FAIR MEANS FEW OR NO CLOUDS BELOW
12 THOUSAND FEET.




USA.gov is the U.S. government's official web portal to all federal, state and local government web resources and services.